Change the Weather History Date:

Saturday, March 23, 2013

  Actual Average (KNEW) Record (KNEW)
Temperature  
Mean Temperature 68 °F 64 °F  
Max Temperature 75 °F 73 °F 84 °F (1995)
Min Temperature 62 °F 55 °F 29 °F (1968)
Degree Days  
Heating Degree Days 0 3  
Month to date heating degree days 113  
Since 1 July heating degree days 1222  
Cooling Degree Days 4 2  
Month to date cooling degree days 41  
Year to date cooling degree days 78  
Growing Degree Days 18 (Base 50)    
Moisture  
Dew Point 68 °F    
Average Humidity 96    
Maximum Humidity 100    
Minimum Humidity 82    
Precipitation  
Precipitation 0.02 in 0.14 in 2.39 in (1958)
Month to date precipitation 3.33  
Year to date precipitation 13.78  
Snow  
Snow 0.00 in - - ()
Month to date snowfall  
Since 1 July snowfall  
Snow Depth -    
Sea Level Pressure  
Sea Level Pressure 29.70 in    
Wind  
Wind Speed 6 mph (ESE)    
Max Wind Speed 10 mph    
Max Gust Speed -    
Visibility 5 miles    
Events Rain    
T = Trace of Precipitation, MM = Missing Value Source: NWS Daily Summary

Daily Weather History Graph

Daily Weather History Graph

Search for Another Location

Airport or City:

Trip Planner

Search our weather history database for the weather conditions in past years. The results will help you decide how hot, cold, wet, or windy it might be!

Date:

Astronomy

Mar. 23, 2013 Rise Set
Actual Time 6:59 AM CDT 7:12 PM CDT
Civil Twilight 6:35 AM CDT 7:36 PM CDT
Nautical Twilight 6:07 AM CDT 8:04 PM CDT
Astronomical Twilight 5:38 AM CDT 8:33 PM CDT
Moon 3:52 PM CDT (3/23) 4:21 AM CDT (3/23)
Length of Visible Light 13h 01m
Length of Day
12h 13m
Waxing Gibbous, 85% of the Moon is Illuminated
Mar 23
Waxing Gibbous
Mar 27
Full
Apr 2
Last Quarter
Apr 10
New
Apr 18
First Quarter

Hourly Weather History & Observations

Time (CDT) Temp. Dew Point Humidity Pressure Visibility Wind Dir Wind Speed Gust Speed Precip Events Conditions
12:53 AM 66.0 °F 64.0 °F 93% 29.83 in 9.0 mi East 4.6 mph - N/A   Overcast
1:53 AM 64.9 °F 64.0 °F 97% 29.82 in 8.0 mi East 4.6 mph - N/A   Overcast
2:53 AM 64.9 °F 64.0 °F 97% 29.81 in 7.0 mi East 3.5 mph - N/A   Overcast
3:28 AM 64.4 °F 64.4 °F 100% 29.79 in 5.0 mi ESE 6.9 mph - N/A   Overcast
3:53 AM 64.0 °F 64.0 °F 100% 29.79 in 6.0 mi ENE 3.5 mph - N/A   Overcast
4:53 AM 64.0 °F 63.0 °F 96% 29.78 in 5.0 mi Variable 4.6 mph - N/A   Overcast
5:22 AM 64.4 °F 62.6 °F 94% 29.79 in 2.5 mi East 3.5 mph - N/A   Overcast
5:39 AM 64.4 °F 64.4 °F 100% 29.78 in 1.8 mi ENE 4.6 mph - N/A   Overcast
5:53 AM 63.0 °F 63.0 °F 100% 29.78 in 1.5 mi East 5.8 mph - N/A   Overcast
6:07 AM 62.6 °F 62.6 °F 100% 29.78 in 2.5 mi East 6.9 mph - N/A   Overcast
6:24 AM 62.6 °F 62.6 °F 100% 29.78 in 3.0 mi ESE 6.9 mph - N/A   Overcast
6:53 AM 63.0 °F 63.0 °F 100% 29.78 in 4.0 mi SE 6.9 mph - N/A   Overcast
7:11 AM 64.4 °F 62.6 °F 94% 29.77 in 6.0 mi Variable 6.9 mph - N/A   Overcast
7:53 AM 64.0 °F 64.0 °F 100% 29.76 in 6.0 mi ESE 8.1 mph - N/A   Overcast
8:53 AM 66.9 °F 64.9 °F 93% 29.78 in 8.0 mi SE 8.1 mph - N/A   Overcast
9:53 AM 69.1 °F 68.0 °F 96% 29.80 in 8.0 mi SE 6.9 mph - N/A   Overcast
10:53 AM 70.0 °F 68.0 °F 93% 29.81 in 10.0 mi SSE 4.6 mph - N/A   Overcast
11:53 AM 72.0 °F 69.1 °F 91% 29.79 in 10.0 mi NE 3.5 mph - N/A   Overcast
12:22 PM 71.6 °F 69.8 °F 94% 29.77 in 10.0 mi NNE 5.8 mph - N/A   Overcast
12:53 PM 73.9 °F 69.1 °F 85% 29.75 in 10.0 mi NNE 4.6 mph - N/A   Overcast
1:53 PM 75.9 °F 70.0 °F 82% 29.70 in 10.0 mi Variable 4.6 mph - N/A   Overcast
2:36 PM 75.2 °F 69.8 °F 83% 29.68 in 10.0 mi East 4.6 mph - N/A   Overcast
2:53 PM 75.0 °F 70.0 °F 84% 29.67 in 10.0 mi ESE 4.6 mph - N/A   Overcast
3:53 PM 73.9 °F 71.1 °F 91% 29.64 in 8.0 mi ESE 5.8 mph - N/A   Overcast
4:15 PM 73.4 °F 71.6 °F 94% 29.63 in 4.0 mi SE 5.8 mph - N/A   Overcast
4:20 PM 73.4 °F 71.6 °F 94% 29.63 in 1.8 mi SE 6.9 mph - N/A   Overcast
4:53 PM 72.0 °F 72.0 °F 100% 29.62 in 1.2 mi ESE 6.9 mph - 0.01 in Rain Light Rain
5:38 PM 71.6 °F 71.6 °F 100% 29.61 in 2.0 mi ESE 6.9 mph - 0.01 in   Overcast
5:53 PM 71.1 °F 71.1 °F 100% 29.61 in 2.0 mi SE 5.8 mph - 0.01 in   Overcast
6:09 PM 71.6 °F 71.6 °F 100% 29.60 in 1.8 mi SSE 6.9 mph - N/A   Overcast
6:20 PM 71.6 °F 71.6 °F 100% 29.60 in 2.0 mi SSE 6.9 mph - N/A   Overcast
6:51 PM 71.6 °F 71.6 °F 100% 29.60 in 3.0 mi SSE 8.1 mph - N/A   Overcast
6:53 PM 71.1 °F 71.1 °F 100% 29.60 in 3.0 mi SSE 6.9 mph - N/A   Overcast
7:02 PM 71.6 °F 71.6 °F 100% 29.60 in 4.0 mi South 8.1 mph - N/A   Overcast
7:53 PM 72.0 °F 71.1 °F 97% 29.59 in 5.0 mi SSE 8.1 mph - N/A   Overcast
8:53 PM 72.0 °F 71.1 °F 97% 29.59 in 6.0 mi South 9.2 mph - N/A   Overcast
9:30 PM 71.6 °F 71.6 °F 100% 29.59 in 5.0 mi South 10.4 mph - N/A   Overcast
9:53 PM 72.0 °F 71.1 °F 97% 29.60 in 3.0 mi South 9.2 mph - N/A   Overcast
10:53 PM 72.0 °F 72.0 °F 100% 29.58 in 3.0 mi South 6.9 mph - N/A   Overcast
11:53 PM 72.0 °F 71.1 °F 97% 29.59 in 5.0 mi SSW 8.1 mph - N/A   Overcast